Tracking 30918 objects as of 2-Jul-2025
HD Live streaming from Space Station
objects crossing your sky now

STARLINK-31362

Track STARLINK-31362 now!
10-day predictions
STARLINK-31362 is classified as:


NORAD ID: 58935
Int'l Code: 2024-027E
Perigee: 481.6 km
Apogee: 483.2 km
Inclination: 53.2 °
Period: 94.1 minutes
Semi major axis: 6853 km
RCS: Unknown
Launch date: February 10, 2024
Source: United States (US)
Launch site: AIR FORCE WESTERN TEST RANGE (AFWTR)
Your satellite tracking list
Your tracking list is empty




NASA's NSSDC Master Catalog

Two Line Element Set (TLE):
1 58935U 24027E   25182.87803635 -.00000242  00000-0  39644-5 0  9993
2 58935  53.1604  34.9232 0001137  97.9529 262.1601 15.30192254 78923
Source of the keplerian elements: AFSPC